Regional Weather Roundup
Issued by NWS

Home | Current Version | Previous Version | Graphics & Text | Print | Product List | Glossary On
Versions: 1 2 3 4 5 6 7 8 9 10 11 12 13 14 15 16 17 18 19 20 21 22 23 24 25 26 27 28 29 30 31 32 33 34 35 36 37 38 39 40 41 42 43 44 45 46 47 48 49 50
000
ASUS43 KLSX 202207
RWRMO

WEATHER SUMMARY FOR MISSOURI
NATIONAL WEATHER SERVICE SPRINGFIELD MO
400 PM CST TUE FEB 20 2018

NOTE: "FAIR" INDICATES FEW OR NO CLOUDS BELOW 12,000 FEET WITH NO
       SIGNIFICANT WEATHER AND/OR OBSTRUCTIONS TO VISIBILITY.
       CURRENT SKY AND/OR WEATHER CONDITIONS ARE NOT AVAILABLE FOR
       CHILLICOTHE AND FARMINGTON.

MOZ001>031-035>038-043-044-053-054-202300-
...NORTHERN AND WESTERN MISSOURI...

CITY           SKY/WX    TMP DP  RH WIND       PRES   REMARKS
KANSAS CTY INT CLOUDY    23  19  85 N14       30.15R WCI  11
KANSAS C DTWN  CLOUDY    27  20  75 N15       30.16R WCI  15
LEE`S SUMMIT   CLOUDY    26  23  88 N14       30.13R WCI  14
ST JOSEPH      CLOUDY    23  18  81 NW16      30.19R WCI  10
CHILLICOTHE      N/A     27  23  85 NW7       30.15R WCI  19
KIRKSVILLE     CLOUDY    30  27  88 NW13      30.10R WCI  20

$$
MOZ066>068-077>081-088>096-101>105-202300-
...SOUTHWEST MISSOURI...

CITY           SKY/WX    TMP DP  RH WIND       PRES   REMARKS
SPRINGFIELD    RAIN      38  37  97 NW14      30.02R FOG     WCI  30
JOPLIN         RAIN      34  34 100 N12       30.09R FOG     WCI  25
BRANSON        RAIN      50  50 100 NW12      29.98R VSB 3/4

$$
MOZ032>034-039>042-045>050-055>058-069>072-202300-
...CENTRAL MISSOURI...

CITY           SKY/WX    TMP DP  RH WIND       PRES   REMARKS
COLUMBIA       LGT RAIN  35  35 100 NW10      30.05S FOG     WCI  27
JEFFERSON CITY RAIN      37  35  92 NW10      30.06F FOG     WCI  30
ROLLA          RAIN      40  40 100 NW14      30.01R FOG
SEDALIA        FRZ RAIN  32  32 100 N16       30.09F FOG     WCI  21
WHITEMAN AFB   FRZ DRZL  29  27  90 CALM      30.07R
WARRENSBURG    MIX PCPN  28  27  93 NW6       30.12R WCI  22
OSAGE BEACH    LGT SNOW  36  35  96 NW8       30.07R FOG     WCI  30

$$
MOZ051-052-059>065-202300-
...EAST CENTRAL MISSOURI...

CITY           SKY/WX    TMP DP  RH WIND       PRES   REMARKS
ST LOUIS INTL  LGT RAIN  50  49  96 NW10      29.98R
SPIRIT OF STL  RAIN      50  49  96 NW13G20   29.99R FOG
ST CHARLES     LGT RAIN  50  48  93 NW8       29.98R FOG

$$
MOZ072>076-082>087-097>100-106>115-202300-
...SOUTH CENTRAL AND SOUTHEAST MISSOURI...

CITY           SKY/WX    TMP DP  RH WIND       PRES   REMARKS
CAPE GIRARDEAU FAIR      74  61  63 S18G37    30.01R
FARMINGTON     CLOUDY    70  61  73 S16G23    29.98R
POPLAR BLUFF   PTSUNNY   74  63  68 S15G32    29.99S
WEST PLAINS    LGT RAIN  67  60  78 S13G24    29.97S

$$



USA.gov is the U.S. government's official web portal to all federal, state and local government web resources and services.